owner,sensor,date,latitude,longitude,vertical_datum,wind_speed,wind_to_direction,wind_speed_of_gust,qcFlag 
TCOON,ioos:station:TCOON:524:1,2009-06-03T10:54:00Z,29.8672,-93.9310,0.0,1.9,230.0,2.4,'11111222,11111222,11111222' 
TCOON,ioos:station:TCOON:524:1,2009-06-03T11:00:00Z,29.8672,-93.9310,0.0,1.6,222.0,2.0,'11111222,11111222,11111222' 
TCOON,ioos:station:TCOON:524:1,2009-06-03T11:06:00Z,29.8672,-93.9310,0.0,1.3,263.0,1.7,'11111222,11111222,11111222' 
TCOON,ioos:station:TCOON:524:1,2009-06-03T11:12:00Z,29.8672,-93.9310,0.0,0.0,278.0,99.0,'11111222,11111222,11144222' 
TCOON,ioos:station:TCOON:524:1,2009-06-03T11:18:00Z,29.8672,-93.9310,0.0,0.0,275.0,99.0,'11111222,11111222,11144222' 
TCOON,ioos:station:TCOON:524:1,2009-06-03T11:24:00Z,29.8672,-93.9310,0.0,0.7,264.0,1.5,'11111222,11111222,11111222' 
TCOON,ioos:station:TCOON:524:1,2009-06-03T11:30:00Z,29.8672,-93.9310,0.0,0.0,250.0,99.0,'11111222,11111222,11144222' 
TCOON,ioos:station:TCOON:524:1,2009-06-03T11:36:00Z,29.8672,-93.9310,0.0,0.0,238.0,99.0,'11111222,11111222,11144222' 
TCOON,ioos:station:TCOON:524:1,2009-06-03T11:42:00Z,29.8672,-93.9310,0.0,0.0,197.0,99.0,'11111222,11111222,11144222' 
TCOON,ioos:station:TCOON:524:1,2009-06-03T11:48:00Z,29.8672,-93.9310,0.0,0.0,213.0,99.0,'11111222,11111222,11144222' 
TCOON,ioos:station:TCOON:524:1,2009-06-03T11:54:00Z,29.8672,-93.9310,0.0,0.0,223.0,99.0,'11111222,11111222,11144222' 
TCOON,ioos:station:TCOON:524:1,2009-06-03T12:00:00Z,29.8672,-93.9310,0.0,0.0,220.0,99.0,'11111222,11111222,11144222' 
TCOON,ioos:station:TCOON:524:1,2009-06-03T12:06:00Z,29.8672,-93.9310,0.0,0.3,179.0,1.2,'11111222,11111222,11111222' 
TCOON,ioos:station:TCOON:524:1,2009-06-03T12:12:00Z,29.8672,-93.9310,0.0,0.0,198.0,99.0,'11111222,11111222,11144222' 
TCOON,ioos:station:TCOON:524:1,2009-06-03T12:18:00Z,29.8672,-93.9310,0.0,0.0,155.0,99.0,'11111222,11111222,11144222' 
TCOON,ioos:station:TCOON:524:1,2009-06-03T12:24:00Z,29.8672,-93.9310,0.0,0.0,134.0,0.2,'11111222,11111222,11111222' 
TCOON,ioos:station:TCOON:524:1,2009-06-03T12:30:00Z,29.8672,-93.9310,0.0,0.3,136.0,1.8,'11111222,11111222,11111222' 
TCOON,ioos:station:TCOON:524:1,2009-06-03T12:36:00Z,29.8672,-93.9310,0.0,1.3,194.0,1.7,'11111222,11111222,11111222' 
TCOON,ioos:station:TCOON:524:1,2009-06-03T12:42:00Z,29.8672,-93.9310,0.0,1.7,170.0,2.3,'11111222,11111222,11111222' 
TCOON,ioos:station:TCOON:524:1,2009-06-03T12:48:00Z,29.8672,-93.9310,0.0,2.5,139.0,3.4,'11111222,11111222,11111222' 
TCOON,ioos:station:TCOON:524:1,2009-06-03T12:54:00Z,29.8672,-93.9310,0.0,1.7,135.0,2.7,'11111222,11111222,11111222' 
TCOON,ioos:station:TCOON:524:1,2009-06-03T13:00:00Z,29.8672,-93.9310,0.0,1.5,142.0,2.5,'11111222,11111222,11111222' 
TCOON,ioos:station:TCOON:524:1,2009-06-03T13:06:00Z,29.8672,-93.9310,0.0,0.9,142.0,1.7,'11111222,11111222,11111222' 
TCOON,ioos:station:TCOON:524:1,2009-06-03T13:12:00Z,29.8672,-93.9310,0.0,1.7,144.0,2.1,'11111222,11111222,11111222' 
TCOON,ioos:station:TCOON:524:1,2009-06-03T13:18:00Z,29.8672,-93.9310,0.0,0.0,161.0,0.3,'11111222,11111222,11111222' 
TCOON,ioos:station:TCOON:524:1,2009-06-03T13:24:00Z,29.8672,-93.9310,0.0,1.9,198.0,2.8,'11111222,11111222,11111222' 
TCOON,ioos:station:TCOON:524:1,2009-06-03T13:30:00Z,29.8672,-93.9310,0.0,1.7,179.0,2.6,'11111222,11111222,11111222' 
TCOON,ioos:station:TCOON:524:1,2009-06-03T13:36:00Z,29.8672,-93.9310,0.0,2.0,181.0,2.7,'11111222,11111222,11111222' 
TCOON,ioos:station:TCOON:524:1,2009-06-03T13:42:00Z,29.8672,-93.9310,0.0,1.9,189.0,2.6,'11111222,11111222,11111222' 
TCOON,ioos:station:TCOON:524:1,2009-06-03T13:48:00Z,29.8672,-93.9310,0.0,2.1,211.0,2.9,'11111222,11111222,11111222' 
TCOON,ioos:station:TCOON:524:1,2009-06-03T13:54:00Z,29.8672,-93.9310,0.0,2.2,207.0,3.2,'11111222,11111222,11111222' 
TCOON,ioos:station:TCOON:524:1,2009-06-03T14:00:00Z,29.8672,-93.9310,0.0,1.8,170.0,2.5,'11111222,11111222,11111222' 
TCOON,ioos:station:TCOON:524:1,2009-06-03T14:06:00Z,29.8672,-93.9310,0.0,1.8,170.0,3.0,'11111222,11111222,11111222' 
TCOON,ioos:station:TCOON:524:1,2009-06-03T14:12:00Z,29.8672,-93.9310,0.0,1.6,156.0,2.2,'11111222,11111222,11111222' 
TCOON,ioos:station:TCOON:524:1,2009-06-03T14:18:00Z,29.8672,-93.9310,0.0,1.5,132.0,2.3,'11111222,11111222,11111222' 
TCOON,ioos:station:TCOON:524:1,2009-06-03T14:24:00Z,29.8672,-93.9310,0.0,2.4,136.0,3.3,'11111222,11111222,11111222' 
TCOON,ioos:station:TCOON:524:1,2009-06-03T14:30:00Z,29.8672,-93.9310,0.0,3.0,136.0,3.9,'11111222,11111222,11111222' 
TCOON,ioos:station:TCOON:524:1,2009-06-03T14:36:00Z,29.8672,-93.9310,0.0,2.2,140.0,3.4,'11111222,11111222,11111222' 
TCOON,ioos:station:TCOON:524:1,2009-06-03T14:42:00Z,29.8672,-93.9310,0.0,2.9,132.0,4.3,'11111222,11111222,11111222' 
TCOON,ioos:station:TCOON:524:1,2009-06-03T14:48:00Z,29.8672,-93.9310,0.0,1.4,159.0,2.1,'11111222,11111222,11111222' 
TCOON,ioos:station:TCOON:524:1,2009-06-03T14:54:00Z,29.8672,-93.9310,0.0,2.4,127.0,3.8,'11111222,11111222,11111222' 
TCOON,ioos:station:TCOON:524:1,2009-06-03T15:00:00Z,29.8672,-93.9310,0.0,2.4,190.0,3.7,'11111222,11111222,11111222' 
TCOON,ioos:station:TCOON:524:1,2009-06-03T15:06:00Z,29.8672,-93.9310,0.0,2.0,199.0,2.8,'11111222,11111222,11111222' 
TCOON,ioos:station:TCOON:524:1,2009-06-03T15:12:00Z,29.8672,-93.9310,0.0,1.6,163.0,3.0,'11111222,11111222,11111222' 
TCOON,ioos:station:TCOON:524:1,2009-06-03T15:18:00Z,29.8672,-93.9310,0.0,2.6,199.0,3.8,'11111222,11111222,11111222' 
TCOON,ioos:station:TCOON:524:1,2009-06-03T15:24:00Z,29.8672,-93.9310,0.0,1.4,165.0,2.7,'11111222,11111222,11111222' 
TCOON,ioos:station:TCOON:524:1,2009-06-03T15:30:00Z,29.8672,-93.9310,0.0,2.3,195.0,3.0,'11111222,11111222,11111222' 
TCOON,ioos:station:TCOON:524:1,2009-06-03T15:36:00Z,29.8672,-93.9310,0.0,2.8,122.0,4.7,'11111222,11111222,11111222' 
TCOON,ioos:station:TCOON:524:1,2009-06-03T15:42:00Z,29.8672,-93.9310,0.0,3.4,136.0,4.8,'11111222,11111222,11111222' 
TCOON,ioos:station:TCOON:524:1,2009-06-03T15:48:00Z,29.8672,-93.9310,0.0,3.4,129.0,4.2,'11111222,11111222,11111222' 
TCOON,ioos:station:TCOON:524:1,2009-06-03T15:54:00Z,29.8672,-93.9310,0.0,4.4,130.0,5.5,'11111222,11111222,11111222' 
TCOON,ioos:station:TCOON:524:1,2009-06-03T16:00:00Z,29.8672,-93.9310,0.0,3.8,131.0,5.2,'11111222,11111222,11111222' 
TCOON,ioos:station:TCOON:524:1,2009-06-03T16:06:00Z,29.8672,-93.9310,0.0,3.3,137.0,5.1,'11111222,11111222,11111222' 
TCOON,ioos:station:TCOON:524:1,2009-06-03T16:12:00Z,29.8672,-93.9310,0.0,3.8,133.0,5.1,'11111222,11111222,11111222' 
TCOON,ioos:station:TCOON:524:1,2009-06-03T16:18:00Z,29.8672,-93.9310,0.0,4.2,135.0,6.6,'11111222,11111222,11111222' 
TCOON,ioos:station:TCOON:524:1,2009-06-03T16:24:00Z,29.8672,-93.9310,0.0,4.2,136.0,5.6,'11111222,11111222,11111222' 
TCOON,ioos:station:TCOON:524:1,2009-06-03T16:30:00Z,29.8672,-93.9310,0.0,4.4,139.0,5.9,'11111222,11111222,11111222' 
TCOON,ioos:station:TCOON:524:1,2009-06-03T16:36:00Z,29.8672,-93.9310,0.0,4.8,132.0,6.8,'11111222,11111222,11111222' 
TCOON,ioos:station:TCOON:524:1,2009-06-03T16:42:00Z,29.8672,-93.9310,0.0,4.0,130.0,6.2,'11111222,11111222,11111222' 
TCOON,ioos:station:TCOON:524:1,2009-06-03T16:48:00Z,29.8672,-93.9310,0.0,2.9,151.0,4.3,'11111222,11111222,11111222' 
TCOON,ioos:station:TCOON:524:1,2009-06-03T16:54:00Z,29.8672,-93.9310,0.0,2.6,158.0,5.7,'11111222,11111222,11111222' 
TCOON,ioos:station:TCOON:524:1,2009-06-03T17:00:00Z,29.8672,-93.9310,0.0,3.8,144.0,5.9,'11111222,11111222,11111222' 
TCOON,ioos:station:TCOON:524:1,2009-06-03T17:06:00Z,29.8672,-93.9310,0.0,4.0,146.0,5.8,'11111222,11111222,11111222' 
TCOON,ioos:station:TCOON:524:1,2009-06-03T17:12:00Z,29.8672,-93.9310,0.0,4.3,163.0,6.1,'11111222,11111222,11111222' 
TCOON,ioos:station:TCOON:524:1,2009-06-03T17:18:00Z,29.8672,-93.9310,0.0,4.3,171.0,5.8,'11111222,11111222,11111222' 
TCOON,ioos:station:TCOON:524:1,2009-06-03T17:24:00Z,29.8672,-93.9310,0.0,3.9,154.0,6.4,'11111222,11111222,11111222' 
TCOON,ioos:station:TCOON:524:1,2009-06-03T17:30:00Z,29.8672,-93.9310,0.0,4.3,161.0,6.3,'11111222,11111222,11111222' 
TCOON,ioos:station:TCOON:524:1,2009-06-03T17:36:00Z,29.8672,-93.9310,0.0,4.9,171.0,7.5,'11111222,11111222,11111222' 
TCOON,ioos:station:TCOON:524:1,2009-06-03T17:42:00Z,29.8672,-93.9310,0.0,3.4,160.0,5.6,'11111222,11111222,11111222' 
TCOON,ioos:station:TCOON:524:1,2009-06-03T17:48:00Z,29.8672,-93.9310,0.0,3.8,154.0,5.6,'11111222,11111222,11111222' 
TCOON,ioos:station:TCOON:524:1,2009-06-03T17:54:00Z,29.8672,-93.9310,0.0,3.7,143.0,5.1,'11111222,11111222,11111222' 
TCOON,ioos:station:TCOON:524:1,2009-06-03T18:00:00Z,29.8672,-93.9310,0.0,4.4,167.0,5.6,'11111222,11111222,11111222' 
TCOON,ioos:station:TCOON:524:1,2009-06-03T18:06:00Z,29.8672,-93.9310,0.0,3.8,155.0,5.4,'11111222,11111222,11111222' 
TCOON,ioos:station:TCOON:524:1,2009-06-03T18:12:00Z,29.8672,-93.9310,0.0,3.6,157.0,5.7,'11111222,11111222,11111222' 
TCOON,ioos:station:TCOON:524:1,2009-06-03T18:18:00Z,29.8672,-93.9310,0.0,4.2,155.0,6.3,'11111222,11111222,11111222' 
TCOON,ioos:station:TCOON:524:1,2009-06-03T18:24:00Z,29.8672,-93.9310,0.0,4.2,156.0,6.5,'11111222,11111222,11111222' 
TCOON,ioos:station:TCOON:524:1,2009-06-03T18:30:00Z,29.8672,-93.9310,0.0,4.5,153.0,6.6,'11111222,11111222,11111222' 
TCOON,ioos:station:TCOON:524:1,2009-06-03T18:36:00Z,29.8672,-93.9310,0.0,3.8,169.0,6.0,'11111222,11111222,11111222' 
TCOON,ioos:station:TCOON:524:1,2009-06-03T18:42:00Z,29.8672,-93.9310,0.0,4.2,163.0,6.1,'11111222,11111222,11111222' 
TCOON,ioos:station:TCOON:524:1,2009-06-03T18:48:00Z,29.8672,-93.9310,0.0,4.7,169.0,6.5,'11111222,11111222,11111222' 
TCOON,ioos:station:TCOON:524:1,2009-06-03T18:54:00Z,29.8672,-93.9310,0.0,4.7,168.0,5.9,'11111222,11111222,11111222' 
TCOON,ioos:station:TCOON:524:1,2009-06-03T19:00:00Z,29.8672,-93.9310,0.0,4.1,154.0,6.4,'11111222,11111222,11111222' 
TCOON,ioos:station:TCOON:524:1,2009-06-03T19:06:00Z,29.8672,-93.9310,0.0,3.4,154.0,5.4,'11111222,11111222,11111222' 
TCOON,ioos:station:TCOON:524:1,2009-06-03T19:12:00Z,29.8672,-93.9310,0.0,4.5,149.0,7.4,'11111222,11111222,11111222' 
TCOON,ioos:station:TCOON:524:1,2009-06-03T19:18:00Z,29.8672,-93.9310,0.0,4.0,154.0,6.0,'11111222,11111222,11111222' 
TCOON,ioos:station:TCOON:524:1,2009-06-03T19:24:00Z,29.8672,-93.9310,0.0,4.2,154.0,6.8,'11111222,11111222,11111222' 
TCOON,ioos:station:TCOON:524:1,2009-06-03T19:30:00Z,29.8672,-93.9310,0.0,5.0,163.0,8.2,'11111222,11111222,11111222' 
TCOON,ioos:station:TCOON:524:1,2009-06-03T19:36:00Z,29.8672,-93.9310,0.0,4.9,156.0,7.4,'11111222,11111222,11111222' 
TCOON,ioos:station:TCOON:524:1,2009-06-03T19:42:00Z,29.8672,-93.9310,0.0,4.3,167.0,5.9,'11111222,11111222,11111222' 
TCOON,ioos:station:TCOON:524:1,2009-06-03T19:48:00Z,29.8672,-93.9310,0.0,4.5,182.0,7.4,'11111222,11111222,11111222' 
TCOON,ioos:station:TCOON:524:1,2009-06-03T19:54:00Z,29.8672,-93.9310,0.0,5.6,191.0,7.8,'11111222,11111222,11111222' 
TCOON,ioos:station:TCOON:524:1,2009-06-03T20:00:00Z,29.8672,-93.9310,0.0,4.1,184.0,6.4,'11111222,11111222,11111222' 
TCOON,ioos:station:TCOON:524:1,2009-06-03T20:06:00Z,29.8672,-93.9310,0.0,6.0,198.0,7.7,'11111222,11111222,11111222' 
TCOON,ioos:station:TCOON:524:1,2009-06-03T20:12:00Z,29.8672,-93.9310,0.0,5.8,195.0,7.4,'11111222,11111222,11111222' 
TCOON,ioos:station:TCOON:524:1,2009-06-03T20:18:00Z,29.8672,-93.9310,0.0,6.0,197.0,8.5,'11111222,11111222,11111222' 
TCOON,ioos:station:TCOON:524:1,2009-06-03T20:24:00Z,29.8672,-93.9310,0.0,6.0,198.0,8.2,'11111222,11111222,11111222' 
TCOON,ioos:station:TCOON:524:1,2009-06-03T20:30:00Z,29.8672,-93.9310,0.0,5.7,208.0,7.6,'11111222,11111222,11111222' 
TCOON,ioos:station:TCOON:524:1,2009-06-03T20:36:00Z,29.8672,-93.9310,0.0,7.2,203.0,8.3,'11111222,11111222,11111222' 
TCOON,ioos:station:TCOON:524:1,2009-06-03T20:42:00Z,29.8672,-93.9310,0.0,6.7,194.0,8.8,'11111222,11111222,11111222' 
TCOON,ioos:station:TCOON:524:1,2009-06-03T20:48:00Z,29.8672,-93.9310,0.0,6.9,200.0,8.7,'11111222,11111222,11111222' 
TCOON,ioos:station:TCOON:524:1,2009-06-03T20:54:00Z,29.8672,-93.9310,0.0,7.3,204.0,9.3,'11111222,11111222,11111222' 
TCOON,ioos:station:TCOON:524:1,2009-06-03T21:00:00Z,29.8672,-93.9310,0.0,7.5,204.0,9.1,'11111222,11111222,11111222' 
TCOON,ioos:station:TCOON:524:1,2009-06-03T21:06:00Z,29.8672,-93.9310,0.0,7.4,217.0,10.0,'11111222,11111222,11111222' 
TCOON,ioos:station:TCOON:524:1,2009-06-03T21:12:00Z,29.8672,-93.9310,0.0,6.9,240.0,8.9,'11111222,11111222,11111222' 
TCOON,ioos:station:TCOON:524:1,2009-06-03T21:18:00Z,29.8672,-93.9310,0.0,7.7,268.0,10.6,'11111222,11111222,11111222' 
TCOON,ioos:station:TCOON:524:1,2009-06-03T21:24:00Z,29.8672,-93.9310,0.0,8.8,263.0,13.1,'11111222,11111222,11111222' 
TCOON,ioos:station:TCOON:524:1,2009-06-03T21:30:00Z,29.8672,-93.9310,0.0,8.3,275.0,13.5,'11111222,11111222,11111222' 
TCOON,ioos:station:TCOON:524:1,2009-06-03T21:36:00Z,29.8672,-93.9310,0.0,8.9,277.0,13.1,'11111222,11111222,11111222' 
TCOON,ioos:station:TCOON:524:1,2009-06-03T21:42:00Z,29.8672,-93.9310,0.0,5.9,272.0,10.2,'11111222,11111222,11111222' 
TCOON,ioos:station:TCOON:524:1,2009-06-03T21:48:00Z,29.8672,-93.9310,0.0,4.4,258.0,6.1,'11111222,11111222,11111222' 
TCOON,ioos:station:TCOON:524:1,2009-06-03T21:54:00Z,29.8672,-93.9310,0.0,0.4,211.0,1.7,'11111222,11111222,11111222' 
TCOON,ioos:station:TCOON:524:1,2009-06-03T22:00:00Z,29.8672,-93.9310,0.0,0.9,133.0,1.7,'11111222,11111222,11111222' 
TCOON,ioos:station:TCOON:524:1,2009-06-03T22:06:00Z,29.8672,-93.9310,0.0,1.7,155.0,2.5,'11111222,11111222,11111222' 
TCOON,ioos:station:TCOON:524:1,2009-06-03T22:12:00Z,29.8672,-93.9310,0.0,3.6,199.0,4.9,'11111222,11111222,11111222' 
TCOON,ioos:station:TCOON:524:1,2009-06-03T22:18:00Z,29.8672,-93.9310,0.0,6.1,212.0,7.9,'11111222,11111222,11111222' 
TCOON,ioos:station:TCOON:524:1,2009-06-03T22:24:00Z,29.8672,-93.9310,0.0,5.8,219.0,6.7,'11111222,11111222,11111222' 
TCOON,ioos:station:TCOON:524:1,2009-06-03T22:30:00Z,29.8672,-93.9310,0.0,6.2,218.0,99.0,'11111222,11111222,11144222' 
TCOON,ioos:station:TCOON:524:1,2009-06-03T22:36:00Z,29.8672,-93.9310,0.0,4.7,213.0,6.1,'11111222,11111222,11111222' 
TCOON,ioos:station:TCOON:524:1,2009-06-03T22:42:00Z,29.8672,-93.9310,0.0,4.0,215.0,4.7,'11111222,11111222,11111222' 
TCOON,ioos:station:TCOON:524:1,2009-06-03T22:48:00Z,29.8672,-93.9310,0.0,2.9,187.0,3.9,'11111222,11111222,11111222' 
TCOON,ioos:station:TCOON:524:1,2009-06-03T22:54:00Z,29.8672,-93.9310,0.0,1.9,172.0,2.9,'11111222,11111222,11111222' 
TCOON,ioos:station:TCOON:524:1,2009-06-03T23:00:00Z,29.8672,-93.9310,0.0,2.4,163.0,3.2,'11111222,11111222,11111222' 
TCOON,ioos:station:TCOON:524:1,2009-06-03T23:06:00Z,29.8672,-93.9310,0.0,2.4,178.0,3.4,'11111222,11111222,11111222' 
TCOON,ioos:station:TCOON:524:1,2009-06-03T23:12:00Z,29.8672,-93.9310,0.0,2.4,179.0,3.3,'11111222,11111222,11111222' 
TCOON,ioos:station:TCOON:524:1,2009-06-03T23:18:00Z,29.8672,-93.9310,0.0,1.8,197.0,2.5,'11111222,11111222,11111222' 
TCOON,ioos:station:TCOON:524:1,2009-06-03T23:24:00Z,29.8672,-93.9310,0.0,3.6,227.0,4.4,'11111222,11111222,11111222' 
TCOON,ioos:station:TCOON:524:1,2009-06-03T23:30:00Z,29.8672,-93.9310,0.0,3.7,216.0,4.6,'11111222,11111222,11111222' 
TCOON,ioos:station:TCOON:524:1,2009-06-03T23:36:00Z,29.8672,-93.9310,0.0,3.5,216.0,4.2,'11111222,11111222,11111222' 
TCOON,ioos:station:TCOON:524:1,2009-06-03T23:42:00Z,29.8672,-93.9310,0.0,3.1,219.0,3.6,'11111222,11111222,11111222' 
TCOON,ioos:station:TCOON:524:1,2009-06-03T23:48:00Z,29.8672,-93.9310,0.0,2.3,251.0,3.0,'11111222,11111222,11111222' 
TCOON,ioos:station:TCOON:524:1,2009-06-03T23:54:00Z,29.8672,-93.9310,0.0,1.8,253.0,2.3,'11111222,11111222,11111222' 
TCOON,ioos:station:TCOON:524:1,2009-06-04T00:00:00Z,29.8672,-93.9310,0.0,1.8,280.0,2.1,'11111222,11111222,11111222' 
TCOON,ioos:station:TCOON:524:1,2009-06-04T00:06:00Z,29.8672,-93.9310,0.0,5.4,341.0,7.6,'11111222,11111222,11111222' 
TCOON,ioos:station:TCOON:524:1,2009-06-04T00:12:00Z,29.8672,-93.9310,0.0,5.7,341.0,7.1,'11111222,11111222,11111222' 
TCOON,ioos:station:TCOON:524:1,2009-06-04T00:18:00Z,29.8672,-93.9310,0.0,5.7,339.0,7.5,'11111222,11111222,11111222' 
TCOON,ioos:station:TCOON:524:1,2009-06-04T00:24:00Z,29.8672,-93.9310,0.0,3.6,335.0,4.6,'11111222,11111222,11111222' 
TCOON,ioos:station:TCOON:524:1,2009-06-04T00:30:00Z,29.8672,-93.9310,0.0,4.1,338.0,5.7,'11111222,11111222,11111222' 
TCOON,ioos:station:TCOON:524:1,2009-06-04T00:36:00Z,29.8672,-93.9310,0.0,4.6,352.0,6.0,'11111222,11111222,11111222' 
TCOON,ioos:station:TCOON:524:1,2009-06-04T00:42:00Z,29.8672,-93.9310,0.0,4.3,344.0,5.4,'11111222,11111222,11111222' 
TCOON,ioos:station:TCOON:524:1,2009-06-04T00:48:00Z,29.8672,-93.9310,0.0,3.9,338.0,5.2,'11111222,11111222,11111222' 
TCOON,ioos:station:TCOON:524:1,2009-06-04T00:54:00Z,29.8672,-93.9310,0.0,2.9,322.0,3.8,'11111222,11111222,11111222' 
TCOON,ioos:station:TCOON:524:1,2009-06-04T01:00:00Z,29.8672,-93.9310,0.0,5.9,317.0,7.5,'11111222,11111222,11111222' 
TCOON,ioos:station:TCOON:524:1,2009-06-04T01:06:00Z,29.8672,-93.9310,0.0,5.4,316.0,7.3,'11111222,11111222,11111222' 
TCOON,ioos:station:TCOON:524:1,2009-06-04T01:12:00Z,29.8672,-93.9310,0.0,3.0,315.0,4.1,'11111222,11111222,11111222' 
TCOON,ioos:station:TCOON:524:1,2009-06-04T01:18:00Z,29.8672,-93.9310,0.0,2.2,338.0,3.3,'11111222,11111222,11111222' 
TCOON,ioos:station:TCOON:524:1,2009-06-04T01:24:00Z,29.8672,-93.9310,0.0,2.5,312.0,3.5,'11111222,11111222,11111222' 
TCOON,ioos:station:TCOON:524:1,2009-06-04T01:30:00Z,29.8672,-93.9310,0.0,2.6,303.0,3.7,'11111222,11111222,11111222' 
TCOON,ioos:station:TCOON:524:1,2009-06-04T01:36:00Z,29.8672,-93.9310,0.0,2.1,343.0,2.6,'11111222,11111222,11111222' 
TCOON,ioos:station:TCOON:524:1,2009-06-04T01:42:00Z,29.8672,-93.9310,0.0,1.8,1.0,2.4,'11111222,11111222,11111222' 
TCOON,ioos:station:TCOON:524:1,2009-06-04T01:48:00Z,29.8672,-93.9310,0.0,2.7,334.0,3.1,'11111222,11111222,11111222' 
TCOON,ioos:station:TCOON:524:1,2009-06-04T01:54:00Z,29.8672,-93.9310,0.0,3.5,324.0,4.4,'11111222,11111222,11111222' 
TCOON,ioos:station:TCOON:524:1,2009-06-04T02:00:00Z,29.8672,-93.9310,0.0,3.1,309.0,3.6,'11111222,11111222,11111222' 
TCOON,ioos:station:TCOON:524:1,2009-06-04T02:06:00Z,29.8672,-93.9310,0.0,2.6,316.0,3.1,'11111222,11111222,11111222' 
TCOON,ioos:station:TCOON:524:1,2009-06-04T02:12:00Z,29.8672,-93.9310,0.0,2.8,328.0,3.3,'11111222,11111222,11111222' 
TCOON,ioos:station:TCOON:524:1,2009-06-04T02:18:00Z,29.8672,-93.9310,0.0,3.1,324.0,3.8,'11111222,11111222,11111222' 
TCOON,ioos:station:TCOON:524:1,2009-06-04T02:24:00Z,29.8672,-93.9310,0.0,2.7,325.0,3.7,'11111222,11111222,11111222' 
TCOON,ioos:station:TCOON:524:1,2009-06-04T02:30:00Z,29.8672,-93.9310,0.0,3.5,331.0,4.4,'11111222,11111222,11111222' 
TCOON,ioos:station:TCOON:524:1,2009-06-04T02:36:00Z,29.8672,-93.9310,0.0,2.8,345.0,3.6,'11111222,11111222,11111222' 
TCOON,ioos:station:TCOON:524:1,2009-06-04T02:42:00Z,29.8672,-93.9310,0.0,2.7,353.0,3.1,'11111222,11111222,11111222' 
TCOON,ioos:station:TCOON:524:1,2009-06-04T02:48:00Z,29.8672,-93.9310,0.0,2.5,334.0,3.4,'11111222,11111222,11111222' 
TCOON,ioos:station:TCOON:524:1,2009-06-04T02:54:00Z,29.8672,-93.9310,0.0,2.1,336.0,2.7,'11111222,11111222,11111222' 
TCOON,ioos:station:TCOON:524:1,2009-06-04T03:00:00Z,29.8672,-93.9310,0.0,2.0,352.0,2.7,'11111222,11111222,11111222' 
TCOON,ioos:station:TCOON:524:1,2009-06-04T03:06:00Z,29.8672,-93.9310,0.0,2.0,354.0,2.6,'11111222,11111222,11111222' 
TCOON,ioos:station:TCOON:524:1,2009-06-04T03:12:00Z,29.8672,-93.9310,0.0,0.5,32.0,2.3,'11111222,11111222,11111222' 
TCOON,ioos:station:TCOON:524:1,2009-06-04T03:18:00Z,29.8672,-93.9310,0.0,0.8,11.0,2.0,'11111222,11111222,11111222' 
TCOON,ioos:station:TCOON:524:1,2009-06-04T03:24:00Z,29.8672,-93.9310,0.0,1.4,6.0,2.4,'11111222,11111222,11111222' 
TCOON,ioos:station:TCOON:524:1,2009-06-04T03:30:00Z,29.8672,-93.9310,0.0,1.5,336.0,1.9,'11111222,11111222,11111222' 
TCOON,ioos:station:TCOON:524:1,2009-06-04T03:36:00Z,29.8672,-93.9310,0.0,1.2,311.0,1.6,'11111222,11111222,11111222' 
TCOON,ioos:station:TCOON:524:1,2009-06-04T03:42:00Z,29.8672,-93.9310,0.0,1.3,276.0,1.7,'11111222,11111222,11111222' 
TCOON,ioos:station:TCOON:524:1,2009-06-04T03:48:00Z,29.8672,-93.9310,0.0,1.4,246.0,1.9,'11111222,11111222,11111222' 
TCOON,ioos:station:TCOON:524:1,2009-06-04T03:54:00Z,29.8672,-93.9310,0.0,0.9,260.0,1.6,'11111222,11111222,11111222' 
TCOON,ioos:station:TCOON:524:1,2009-06-04T04:00:00Z,29.8672,-93.9310,0.0,1.4,243.0,1.7,'11111222,11111222,11111222' 
TCOON,ioos:station:TCOON:524:1,2009-06-04T04:06:00Z,29.8672,-93.9310,0.0,1.4,248.0,2.0,'11111222,11111222,11111222' 
TCOON,ioos:station:TCOON:524:1,2009-06-04T04:12:00Z,29.8672,-93.9310,0.0,0.2,242.0,1.8,'11111222,11111222,11111222' 
TCOON,ioos:station:TCOON:524:1,2009-06-04T04:18:00Z,29.8672,-93.9310,0.0,1.3,241.0,1.8,'11111222,11111222,11111222' 
TCOON,ioos:station:TCOON:524:1,2009-06-04T04:24:00Z,29.8672,-93.9310,0.0,0.0,178.0,99.0,'11111222,11111222,11144222' 
TCOON,ioos:station:TCOON:524:1,2009-06-04T04:30:00Z,29.8672,-93.9310,0.0,1.6,170.0,2.1,'11111222,11111222,11111222' 
TCOON,ioos:station:TCOON:524:1,2009-06-04T04:36:00Z,29.8672,-93.9310,0.0,0.0,224.0,99.0,'11111222,11111222,11144222' 
TCOON,ioos:station:TCOON:524:1,2009-06-04T04:42:00Z,29.8672,-93.9310,0.0,0.0,233.0,99.0,'11111222,11111222,11144222' 
TCOON,ioos:station:TCOON:524:1,2009-06-04T04:48:00Z,29.8672,-93.9310,0.0,0.0,241.0,99.0,'11111222,11111222,11144222' 
TCOON,ioos:station:TCOON:524:1,2009-06-04T04:54:00Z,29.8672,-93.9310,0.0,1.9,226.0,2.4,'11111222,11111222,11111222' 
TCOON,ioos:station:TCOON:524:1,2009-06-04T05:00:00Z,29.8672,-93.9310,0.0,1.8,223.0,2.4,'11111222,11111222,11111222' 
TCOON,ioos:station:TCOON:524:1,2009-06-04T05:06:00Z,29.8672,-93.9310,0.0,1.6,239.0,2.1,'11111222,11111222,11111222' 
TCOON,ioos:station:TCOON:524:1,2009-06-04T05:12:00Z,29.8672,-93.9310,0.0,1.6,251.0,2.0,'11111222,11111222,11111222' 
TCOON,ioos:station:TCOON:524:1,2009-06-04T05:18:00Z,29.8672,-93.9310,0.0,0.6,263.0,1.6,'11111222,11111222,11111222' 
TCOON,ioos:station:TCOON:524:1,2009-06-04T05:24:00Z,29.8672,-93.9310,0.0,1.0,250.0,1.4,'11111222,11111222,11111222' 
TCOON,ioos:station:TCOON:524:1,2009-06-04T05:30:00Z,29.8672,-93.9310,0.0,0.0,285.0,99.0,'11111222,11111222,11144222' 
TCOON,ioos:station:TCOON:524:1,2009-06-04T05:36:00Z,29.8672,-93.9310,0.0,0.3,287.0,1.2,'11111222,11111222,11111222' 
TCOON,ioos:station:TCOON:524:1,2009-06-04T05:42:00Z,29.8672,-93.9310,0.0,1.7,272.0,2.2,'11111222,11111222,11111222' 
TCOON,ioos:station:TCOON:524:1,2009-06-04T05:48:00Z,29.8672,-93.9310,0.0,1.5,295.0,1.8,'11111222,11111222,11111222' 
TCOON,ioos:station:TCOON:524:1,2009-06-04T05:54:00Z,29.8672,-93.9310,0.0,1.1,300.0,1.8,'11111222,11111222,11111222' 
TCOON,ioos:station:TCOON:524:1,2009-06-04T06:00:00Z,29.8672,-93.9310,0.0,0.0,268.0,99.0,'11111222,11111222,11144222' 
TCOON,ioos:station:TCOON:524:1,2009-06-04T06:06:00Z,29.8672,-93.9310,0.0,1.2,277.0,2.1,'11111222,11111222,11111222' 
TCOON,ioos:station:TCOON:524:1,2009-06-04T06:12:00Z,29.8672,-93.9310,0.0,1.9,350.0,2.3,'11111222,11111222,11111222' 
TCOON,ioos:station:TCOON:524:1,2009-06-04T06:18:00Z,29.8672,-93.9310,0.0,1.8,258.0,2.2,'11111222,11111222,11111222' 
TCOON,ioos:station:TCOON:524:1,2009-06-04T06:24:00Z,29.8672,-93.9310,0.0,1.9,244.0,2.5,'11111222,11111222,11111222' 
TCOON,ioos:station:TCOON:524:1,2009-06-04T06:30:00Z,29.8672,-93.9310,0.0,1.8,210.0,3.6,'11111222,11111222,11111222' 
TCOON,ioos:station:TCOON:524:1,2009-06-04T06:36:00Z,29.8672,-93.9310,0.0,0.6,128.0,1.1,'11111222,11111222,11111222' 
TCOON,ioos:station:TCOON:524:1,2009-06-04T06:42:00Z,29.8672,-93.9310,0.0,0.0,115.0,99.0,'11111222,11111222,11144222' 
TCOON,ioos:station:TCOON:524:1,2009-06-04T06:48:00Z,29.8672,-93.9310,0.0,0.0,211.0,99.0,'11111222,11111222,11144222' 
TCOON,ioos:station:TCOON:524:1,2009-06-04T06:54:00Z,29.8672,-93.9310,0.0,0.0,220.0,99.0,'11111222,11111222,11144222' 
TCOON,ioos:station:TCOON:524:1,2009-06-04T07:00:00Z,29.8672,-93.9310,0.0,0.8,252.0,2.0,'11111222,11111222,11111222' 
TCOON,ioos:station:TCOON:524:1,2009-06-04T07:06:00Z,29.8672,-93.9310,0.0,1.8,261.0,2.3,'11111222,11111222,11111222' 
TCOON,ioos:station:TCOON:524:1,2009-06-04T07:12:00Z,29.8672,-93.9310,0.0,1.7,257.0,2.1,'11111222,11111222,11111222' 